Location: Goettingen
(51.5300°N, 9.9433°E)
Time: 11:05:37
(UTC+02:00)

ISS - Pass Details

Date: 17 May 2019
Orbit: 407 x 410 km, 51.6° (Epoch: 21 May)

Event Time Altitude Azimuth Distance (km) Brightness Sun altitude
Exits shadow 00:39:59 27° 90° (E) 822 -2.4 -18.8°
Drops below altitude 10° 00:41:41 10° 81° (E) 1,477 -1.0 -18.9°
Sets 00:43:47 0° 78° (ENE) 2,340 0.1 -18.9°
